Regional Weather Roundup
Issued by NWS Sioux Falls, SD

Home | Current Version | Previous Version | Text Only | Print | Product List | Glossary Off
Versions: 1 2 3 4 5 6 7 8 9 10 11 12 13 14 15 16 17 18 19 20 21 22 23 24 25 26 27 28 29 30 31 32 33 34 35 36 37 38 39 40 41 42 43 44 45 46 47 48 49 50

000
ASUS43 KFSD 011510
RWRFSD

WEATHER ROUNDUP FOR SE SOUTH DAKOTA/SW MINNESOTA/NW IOWA
NATIONAL WEATHER SERVICE SIOUX FALLS SD
1000 AM CDT WED APR 01 2015

NOTE: "FAIR" INDICATES FEW OR NO CLOUDS BELOW 12,000 FEET WITH NO
SIGNIFICANT WEATHER AND OR OBSTRUCTIONS TO VISIBILITY.


SDZ038>040-050-052>070-011600-
SOUTHEAST SOUTH DAKOTA

CITY           SKY/WX    TMP DP  RH WIND       PRES   REMARKS
BROOKINGS      CLOUDY    61  37  41 S29G40    29.56F
CHAMBERLAIN    CLOUDY    67  40  37 SW25G36   29.48R
HURON          CLOUDY    61  36  39 S20G30    29.46F
MADISON        FAIR      59  37  44 S22G38    29.57F
MITCHELL       CLOUDY    65  39  38 S20G29    29.52F
SIOUX FALLS    PTSUNNY   65  35  33 S28G36    29.62F
WINNER         FAIR      69  40  34 SW15G28   29.52R
YANKTON        MOSUNNY   66  41  39 S22G30    29.60F
$$

MNZ071-072-080-081-089-090-097-098-011600-
SOUTHWEST MINNESOTA

CITY           SKY/WX    TMP DP  RH WIND       PRES   REMARKS
FAIRMONT       MOSUNNY   63  34  34 S26       29.71F
JACKSON        MOSUNNY   64  30  27 S28G35    29.70F
LUVERNE        MOSUNNY   64  32  29 S28G35    29.65F
MARSHALL       PTSUNNY   66  36  32 SW39G48   29.56F
MONTEVIDEO     CLOUDY    64  36  34 SW25G37   29.53F
PIPESTONE      MOSUNNY   64  34  32 SW26G36   29.61F
REDWOOD FALLS  CLOUDY    64  33  31 S26G41    29.60F
TRACY          CLOUDY    62  34  35 S23G32    29.61F
WINDOM         PTSUNNY   64  30  27 S24G36    29.67S
WORTHINGTON    MOSUNNY   64  32  29 S30G37    29.68F
$$

IAZ001>003-012>014-020>022-031-032-NEZ013-014-SDZ071-011600-
NORTHWEST IOWA

CITY           SKY/WX    TMP DP  RH WIND       PRES   REMARKS
CHEROKEE       SUNNY     66  33  29 S24       29.72F
DENISON        SUNNY     66  32  28 S22G36    29.75F
ESTHERVILLE    MOSUNNY   63  34  33 S25G35    29.72F
LE MARS        SUNNY     64  36  34 S28G36    29.69F
ORANGE CITY    SUNNY     66  30  26 S26G36    29.68F
SHELDON        MOSUNNY   66  34  30 S28G36    29.68F
SIOUX CITY     SUNNY     69  36  29 S25G36    29.72F
SPENCER        MOSUNNY   66  34  30 S30G37    29.70F
STORM LAKE     SUNNY     66  34  30 S26G35    29.74F
$$

ABBREVIATIONS USED IN REMARKS
   TC - TEMPERATURE IN CELSIUS
  WCI - WIND CHILL INDEX
   HX - HEAT INDEX
  VSB - VISIBILITY




USA.gov is the U.S. government's official web portal to all federal, state and local government web resources and services.